Flag for Germany Weather past 2 weeks in Halle, Saxony-Anhalt, Germany

Now
59 °F

Passing clouds.


Feels Like: 58 °F
Forecast: 49 / 54 °F
Wind: 8 mph from Southwest

Location: Leipzig-Schkeuditz

Current Time: Sep 21, 2014 at 7:02:13 AM

Latest Report: Sep 21, 2014 at 6:20 AM


Visibility: N/A

Pressure: 29.89 "Hg

Humidity: 100%

Dew point: 59 °F

Location of HalleLocation

Historic Weather in Halle — Graph

°F

Halle temperature yesterday

Maximum temperature yesterday: 75 °F (at 1:50 PM)
Minimum temperature yesterday: 61 °F (at 12:20 AM)
Average temperature yesterday: 64 °F

Past Weeks' High & Low Weather Summary

 TemperatureHumidityPressure
High81 °F (Sep 6, 3:20 PM)100% (Sep 6, 5:50 AM)30.15 "Hg (Sep 6, 5:50 AM)
Low50 °F (Sep 9, 6:20 AM)44% (Sep 17, 4:50 PM)29.86 "Hg (Sep 6, 3:50 PM)
Average62 °F88%30.01 "Hg
* Reported Sep 6 5:20 AM — Sep 21 5:50 AM, Halle, Weather by CustomWeather, © 2014

Note: Actual official high and low records may vary slightly from our data, if they occured in-between our weather recording intervals... More about our weather records

Advertising

Halle weather history for previous 24 hours

 ConditionsComfort  
Time TempWeatherWind HumidityBarometerVisibility
5:50 AM
Sep 21
59 °FPassing clouds.8 mph100%29.89 "HgN/A
5:20 AM59 °FPartly cloudy.8 mph100%29.89 "HgN/A
4:50 AM57 °FClear.8 mph100%29.89 "Hg10 mi
4:20 AM57 °FClear.7 mph100%29.89 "Hg10 mi
3:50 AM57 °FClear.8 mph100%29.89 "Hg10 mi
3:20 AM57 °FClear.7 mph100%29.89 "Hg10 mi
2:50 AM59 °FClear.6 mph100%29.92 "Hg10 mi
2:20 AM59 °FClear.6 mph100%29.92 "Hg10 mi
1:50 AM59 °FClear.7 mph94%29.92 "Hg10 mi
1:20 AM59 °FPassing clouds.8 mph100%29.92 "HgN/A
12:20 AM61 °FPartly cloudy.8 mph94%29.92 "HgN/A
11:50 PM
Sep 20
61 °FSprinkles. Partly cloudy.9 mph94%29.92 "HgN/A
11:20 PM61 °FPartly cloudy.8 mph94%29.92 "HgN/A
10:50 PM61 °FPartly cloudy.8 mph94%29.92 "HgN/A
10:20 PM61 °FClear.7 mph94%29.92 "Hg10 mi
9:50 PM61 °FPartly cloudy.9 mph94%29.92 "HgN/A
9:20 PM61 °FPassing clouds.6 mph94%29.92 "HgN/A
8:50 PM61 °FPassing clouds.6 mph94%29.92 "HgN/A
8:20 PM61 °FPassing clouds.5 mph94%29.92 "HgN/A
7:50 PM61 °FThundershowers. Broken clouds.2 mph94%29.92 "HgN/A
3:20 PM72 °FBroken clouds.12 mph73%29.89 "HgN/A
2:50 PM73 °FScattered clouds.15 mph69%29.89 "HgN/A
2:20 PM73 °FScattered clouds.17 mph69%29.92 "HgN/A
1:50 PM75 °FScattered clouds.13 mph69%29.92 "HgN/A
1:20 PM73 °FScattered clouds.9 mph74%29.92 "HgN/A
12:20 PM72 °FScattered clouds.9 mph78%29.92 "HgN/A
11:50 AM72 °FScattered clouds.7 mph78%29.92 "HgN/A
11:20 AM70 °FPartly sunny.8 mph83%29.92 "Hg5 mi
10:50 AM68 °FPartly sunny.8 mph88%29.92 "Hg5 mi
10:20 AM66 °FBroken clouds.8 mph94%29.92 "Hg4 mi
9:50 AM64 °FBroken clouds.6 mph94%29.92 "Hg4 mi
9:20 AM64 °FBroken clouds.6 mph94%29.92 "Hg4 mi
8:50 AM63 °FBroken clouds.6 mph100%29.92 "Hg4 mi
8:20 AM63 °FClear.6 mph100%29.92 "Hg3 mi
7:50 AM61 °FFog.5 mph100%29.92 "Hg2 mi
7:20 AM61 °FFog.5 mph100%29.92 "Hg2 mi
Weather by CustomWeather, © 2014

See weather overviewHow to use our weather pages